Location: Winthrop
(48.4780°N, 120.1850°W)
Time: 03:07:38
(UTC-07:00)

Transit 2A - Pass Details

Date: 19 June 2024
Orbit: 591 x 960 km, 66.7° (Epoch: 23 July)

Event Time Altitude Azimuth Distance (km) Brightness Sun altitude
Rises 00:16:47 0° 326° (NW) 3,459 10.6 -17.4°
Reaches altitude 10° 00:19:22 10° 333° (NNW) 2,567 9.9 -17.5°
Maximum altitude 00:25:04 41° 44° (NE) 1,319 7.5 -17.6°
Drops below altitude 10° 00:31:01 10° 113° (ESE) 2,686 8.5 -17.8°
Enters shadow 00:31:51 - 116° (ESE) 2,972 8.7 -17.8°
